SCP
0 0 0 0 0 0 0 0 0 0 0 0 0 0 0 0 0 0 0 0 0 0 1 1 1 2 2 1 1 1 1 1 1 1 1 1 1 1 1 1 0 0 0 0 0 0 0 0 0
0 0 0 0 0 0 0 0 0 0 0 0 0 0 0 0 0 0 0 0 0 0 1 1 1 2 2 2 1 1 1 1 1 1 1 1 1 1 1 1 0 0 0 0 0 0 0 0 0
0 0 0 0 0 0 0 0 0 0 0 0 0 0 0 0 0 0 0 0 0 0 0 1 1 2 2 2 1 1 1 1 1 1 1 1 1 1 1 0 0 0 0 0 0 0 0 0 0
0 0 0 0 0 0 0 0 0 0 0 0 0 0 0 0 0 0 0 0 0 0 0 0 1 1 1 1 1 1 1 1 1 1 1 1 1 1 0 0 0 0 0 0 0 0 0 0 0
0 0 0 0 0 0 0 0 0 0 0 0 0 0 0 0 0 0 0 0 0 0 0 0 0 1 1 1 1 1 1 1 1 1 1 1 1 0 0 0 0 0 0 0 0 0 0 0 0
0 0 0 0 0 0 0 0 0 0 0 0 0 0 0 0 0 0 1 0 0 0 0 0 0 0 0 1 1 1 1 1 1 1 1 1 1 0 0 0 0 0 0 0 0 1 0 0 0
0 0 0 0 0 0 0 0 0 0 0 0 0 0 0 0 0 0 0 0 0 0 0 0 0 0 0 0 1 1 1 1 1 1 1 1 1 1 0 0 0 0 0 0 1 1 1 0 0
0 0 0 0 0 0 0 0 0 0 0 0 0 0 0 0 0 0 0 0 0 0 0 0 0 0 0 0 0 0 0 1 1 1 1 1 0 0 0 0 0 0 0 1 1 1 1 1 1
0 0 0 0 0 0 0 0 0 0 0 0 0 0 0 0 0 0 1 1 0 0 0 0 0 0 0 0 0 0 0 0 1 1 1 0 0 0 0 0 0 0 0 0 1 1 1 1 1
0 0 0 0 0 0 0 0 0 0 0 0 0 0 0 0 0 0 0 1 0 0 0 0 0 0 0 0 0 0 0 0 1 1 0 0 0 0 0 0 0 0 0 0 1 1 1 1 0
0 0 0 0 0 0 0 0 0 0 0 0 0 0 0 0 0 0 0 0 0 0 0 0 0 0 0 0 0 0 0 0 1 1 0 0 0 0 0 0 0 0 0 0 0 1 1 1 0
0 0 0 0 0 0 0 0 0 0 0 0 0 0 0 0 0 0 0 0 0 0 0 0 0 0 0 0 0 0 0 0 1 1 0 0 0 0 0 0 0 0 0 0 0 0 1 1 0
0 0 0 0 0 0 0 0 0 0 0 0 0 0 0 0 0 0 0 0 0 0 0 0 0 0 0 0 0 0 0 0 0 0 0 0 0 0 0 0 0 0 0 0 0 0 0 0 0
0 0 0 0 0 0 0 0 0 0 0 0 0 0 0 0 0 0 0 0 0 0 0 0 0 0 0 0 0 0 0 0 0 0 0 0 0 0 0 0 0 0 0 0 0 0 0 0 0
0 0 0 0 0 0 0 0 0 0 0 0 0 0 0 0 0 0 0 0 0 0 0 0 0 0 0 0 0 0 0 0 0 0 0 0 0 0 0 0 0 0 0 0 0 0 0 0 0
0 0 0 0 0 0 0 0 0 0 0 0 0 0 0 0 0 0 0 0 0 0 0 0 0 0 0 0 0 0 0 0 0 0 0 0 0 0 0 0 0 0 0 0 0 0 0 0 0
0 0 0 0 0 0 0 0 0 0 0 0 0 0 0 0 0 0 0 0 0 0 0 0 0 0 0 0 0 0 0 0 0 0 0 0 0 0 0 0 0 0 0 0 0 0 0 0 0
0 0 0 0 0 0 0 0 0 0 0 0 0 0 0 0 0 0 0 0 0 0 0 0 0 0 0 0 0 0 0 0 0 0 0 0 0 0 0 0 0 0 0 0 0 0 0 0 0
0 0 0 0 0 0 0 0 0 0 0 0 0 0 0 0 0 0 0 0 0 0 0 0 0 0 0 0 0 0 0 0 0 0 0 0 0 0 0 0 0 0 0 0 0 0 0 0 0
0 0 0 0 0 0 0 0 0 0 0 0 0 0 0 0 0 0 0 0 0 0 0 0 0 0 0 0 0 0 0 0 0 0 0 0 0 0 0 0 0 0 0 0 0 0 0 0 0
0 0 0 0 0 0 0 0 0 0 0 0 0 0 0 0 0 0 0 0 0 0 0 0 0 0 0 0 0 0 0 0 0 0 0 0 0 0 0 0 0 0 0 0 0 0 0 0 0
0 0 0 0 0 0 0 0 0 0 0 0 0 0 0 0 0 0 0 0 0 0 0 0 0 0 0 0 0 0 0 0 0 0 0 0 0 0 0 0 0 0 0 0 0 0 0 0 0
0 0 0 0 0 0 0 0 0 0 0 0 0 0 0 0 0 0 0 0 0 0 0 0 0 0 0 0 0 0 0 0 0 0 0 0 1 1 1 1 0 0 0 0 0 0 0 0 0
0 0 0 0 0 0 0 0 0 0 0 0 0 0 0 0 0 0 0 0 0 0 0 0 0 0 0 0 0 0 0 0 0 0 0 0 0 1 1 1 1 1 0 0 0 0 0 0 0
0 0 0 0 0 0 0 0 0 0 0 0 0 0 0 0 0 0 0 0 0 0 0 0 0 0 0 0 0 0 0 0 0 0 0 0 0 0 0 0 1 1 0 0 0 0 0 0 0
0 0 0 0 0 0 0 0 0 0 0 0 0 0 0 0 0 0 0 0 0 0 0 0 0 0 0 0 0 0 0 0 0 0 0 0 0 0 0 0 0 0 0 0 0 0 0 0 0
0 0 0 0 0 0 0 0 0 0 0 0 0 0 0 0 0 0 0 0 0 0 0 0 0 0 0 0 0 0 0 0 0 0 0 0 0 0 0 0 0 0 0 0 0 0 0 0 0
0 0 0 0 0 0 0 0 0 0 0 0 0 0 0 0 0 0 0 0 0 0 0 0 0 0 0 0 0 0 0 0 0 0 0 0 0 0 0 0 0 0 0 0 0 0 0 0 0
0 0 0 0 0 0 0 0 0 0 0 0 0 0 0 0 0 0 0 0 0 0 0 0 0 0 0 0 0 0 0 0 0 0 0 0 0 0 0 0 0 0 0 0 0 0 0 0 0
0 0 0 0 0 0 0 0 0 0 0 0 0 0 0 0 0 0 0 0 0 0 0 0 0 0 0 0 0 0 0 0 0 0 0 0 0 0 0 0 0 0 0 0 0 0 0 0 0
Wind_Speed
12 7 1 4 6 5 1 2 0 2 4 3 5 8 9 7 4 4 1 2 3 2 3 4 6 7 8 9 9 9 9 9 10 10 10 10 10 10 10 10 10 10 10 10 9 9 9 9 9
6 3 4 5 5 2 1 1 2 2 3 3 6 7 8 7 4 4 3 4 3 3 3 4 7 8 8 9 9 9 8 9 9 9 9 9 9 10 10 10 9 9 9 9 8 9 9 8 7
5 1 5 5 4 3 2 1 2 2 5 4 5 6 6 4 3 3 3 3 4 4 3 5 7 8 9 9 8 8 8 8 8 8 8 8 8 8 8 9 9 9 9 9 8 8 8 7 7
3 4 5 5 2 0 1 1 1 3 5 7 5 7 5 4 3 2 2 4 6 5 4 4 7 8 8 8 8 8 7 7 7 7 7 7 7 7 8 8 8 8 8 8 8 7 7 6 6
4 4 5 3 1 1 1 3 3 5 4 5 5 6 4 5 4 4 4 5 6 5 5 5 7 7 7 8 8 7 7 7 6 7 7 7 7 7 7 7 7 7 7 7 6 6 5 5 5
4 4 4 2 2 0 2 4 4 7 5 4 5 5 3 4 6 5 5 5 5 5 5 5 7 7 7 7 7 7 6 6 5 6 6 6 7 7 7 6 6 6 6 6 6 5 4 4 4
4 3 3 3 3 0 2 3 5 4 5 5 3 5 2 4 5 4 5 6 6 6 5 5 4 5 6 6 6 6 6 5 5 5 5 5 6 6 6 6 5 5 4 4 4 4 4 4 4
3 4 2 2 3 0 3 3 4 5 4 4 4 5 1 3 3 4 6 6 7 6 5 5 4 4 4 3 5 5 5 5 5 5 5 5 5 5 5 5 4 4 4 4 4 3 3 3 4
3 5 2 2 4 2 2 4 4 5 5 6 6 4 2 1 3 6 7 7 7 7 6 5 5 4 3 3 4 3 3 4 4 3 4 4 2 2 3 3 3 3 3 3 3 2 2 3 4
5 4 2 0 2 4 4 5 3 4 6 6 6 6 5 5 6 7 7 6 6 6 5 5 5 4 3 3 2 2 2 2 2 2 2 2 2 1 2 3 3 2 2 2 2 2 2 2 2
4 4 3 2 2 4 5 5 5 5 5 2 3 3 4 6 6 6 5 4 3 3 4 4 4 4 4 2 2 1 1 1 1 2 2 1 1 1 1 1 1 1 1 1 2 2 1 1 1
6 4 4 3 3 4 4 4 6 6 2 2 3 4 4 5 5 4 4 4 4 4 4 4 4 4 4 3 2 1 1 1 1 1 1 1 1 1 0 0 0 0 1 1 1 1 2 2 2
5 4 5 7 9 8 8 6 6 4 3 4 5 6 6 6 5 4 4 4 5 5 5 4 4 4 3 3 2 3 2 1 1 1 0 0 1 0 0 0 0 0 1 1 1 1 2 2 2
5 6 5 5 6 5 8 5 5 2 2 5 5 6 6 6 6 6 6 6 6 6 5 5 4 4 3 3 2 2 2 1 1 1 1 0 0 1 0 0 0 1 1 1 1 2 2 2 2
5 6 5 3 2 2 5 6 2 1 3 5 4 5 6 6 5 5 5 5 5 5 5 5 4 5 4 4 3 2 1 2 2 2 2 1 1 0 1 0 1 1 1 1 1 2 2 2 2
4 4 2 2 2 1 4 2 1 1 5 4 3 3 4 5 5 4 5 5 5 5 6 6 5 5 4 4 3 2 2 1 1 1 1 2 2 1 0 0 1 2 1 1 1 1 2 2 2
3 3 2 0 2 2 4 2 1 1 4 3 2 2 2 3 5 4 5 5 5 5 6 6 6 5 4 3 2 2 2 2 2 2 2 2 2 2 1 1 1 1 1 1 1 1 1 2 3
4 3 2 1 1 4 3 2 1 0 2 3 2 1 1 2 3 3 4 5 5 5 6 6 6 6 5 3 2 2 2 2 3 3 3 3 3 3 1 1 2 1 1 1 1 2 2 2 2
5 5 4 1 0 2 3 2 2 2 2 2 2 2 1 0 1 2 3 4 5 6 6 6 7 7 5 3 3 2 2 3 3 3 4 4 3 3 2 2 2 2 1 2 2 1 2 2 2
6 6 3 1 1 2 2 2 3 3 3 4 4 4 3 1 2 3 3 4 4 5 5 6 6 6 6 4 2 2 2 2 2 3 4 4 4 3 3 2 2 2 2 2 2 1 1 1 1
3 4 4 3 2 2 1 3 2 2 1 2 3 3 3 2 1 2 2 3 3 4 4 4 5 5 5 5 3 3 2 2 3 4 4 4 4 4 3 3 3 3 2 2 3 2 2 2 1
2 1 4 4 3 1 1 3 5 3 2 3 4 4 3 3 2 1 1 2 2 3 3 4 4 4 5 4 4 4 3 3 3 3 3 4 4 4 4 3 3 2 2 2 3 2 2 2 2
3 3 4 3 2 2 0 1 6 1 4 6 6 6 5 4 3 2 1 1 1 2 2 3 3 4 4 4 4 3 3 2 3 3 4 4 3 4 4 4 3 3 2 3 3 3 2 2 2
4 4 4 4 4 1 3 4 6 5 7 6 6 6 5 4 3 2 1 0 1 2 2 3 3 4 4 4 3 3 3 4 4 5 4 4 3 3 4 4 4 4 3 3 3 3 3 2 2
3 5 3 3 2 5 1 3 8 6 6 7 7 7 5 5 4 2 1 0 1 2 3 3 3 4 4 3 3 3 3 3 4 4 4 4 3 3 5 5 4 4 4 4 3 3 3 3 2
2 4 6 5 4 3 1 5 7 3 3 4 5 5 5 4 4 3 3 2 1 1 1 2 2 3 3 3 3 3 3 2 3 4 3 3 3 4 5 5 5 5 5 4 3 3 3 2 2
4 2 2 4 2 1 5 5 7 1 1 2 3 4 4 5 4 4 3 2 2 1 1 1 2 3 3 3 3 3 3 3 3 4 4 3 4 4 5 5 5 5 5 4 4 3 3 3 2
2 4 4 4 4 3 5 5 5 5 5 4 5 6 5 4 4 4 3 3 3 2 2 1 1 2 3 3 2 3 3 3 3 3 4 4 5 5 5 5 5 5 5 5 4 3 3 3 3
2 2 3 3 4 4 4 7 6 7 7 8 8 7 6 6 5 4 4 4 3 1 1 1 1 2 2 3 3 3 3 3 4 3 4 4 4 5 5 5 5 5 5 4 4 4 4 4 4
2 3 5 5 4 3 3 8 3 4 5 6 6 6 5 5 5 4 3 2 2 1 1 1 1 2 2 2 3 3 3 4 4 4 4 4 5 5 5 5 5 5 5 4 4 4 4 4 5
Wind_Direction
326 319 27 53 56 55 53 304 123 44 50 42 61 79 85 69 75 110 340 2 32 86 99 103 94 97 101 102 101 100 96 95 94 92 90 90 89 89 86 82 82 83 82 82 82 85 84 80 75
316 329 51 58 84 94 304 301 80 75 132 118 64 68 71 62 48 64 358 347 38 97 107 106 94 96 98 100 101 100 97 95 94 93 91 88 86 85 85 81 77 79 81 82 83 86 83 76 68
314 34 74 70 93 156 167 286 130 91 64 65 68 52 69 55 22 18 339 5 52 78 83 100 96 97 97 98 97 97 96 96 96 95 93 90 88 86 86 86 80 76 78 80 83 86 80 71 62
35 46 60 75 101 189 170 273 128 101 53 42 86 70 66 33 0 358 27 54 66 65 63 87 96 98 99 97 94 93 97 98 97 97 96 93 92 90 88 89 85 79 77 80 82 86 82 71 58
57 72 73 76 120 16 18 355 55 67 60 35 74 89 69 6 13 49 60 65 67 58 54 68 80 91 97 97 93 91 96 95 95 97 98 98 95 93 92 90 88 83 79 76 79 83 80 68 52
57 70 99 163 163 69 3 8 58 61 62 42 64 93 89 5 22 34 54 58 65 65 55 61 64 68 78 87 89 88 87 86 86 93 97 98 97 94 88 85 85 81 78 75 74 75 69 58 37
101 99 140 161 156 94 347 24 52 65 53 22 34 92 95 3 9 37 58 60 55 59 53 45 52 59 66 77 81 84 82 76 74 79 83 86 87 88 82 80 81 78 73 71 71 67 56 41 20
117 105 104 127 148 186 335 47 56 52 62 12 41 97 113 318 350 53 60 56 51 47 47 44 40 42 45 61 74 78 77 71 68 70 73 79 80 79 79 76 76 75 67 63 64 59 46 28 14
83 83 137 175 160 153 25 66 37 44 64 45 44 62 74 38 50 60 50 40 36 34 30 32 31 31 33 45 58 65 70 66 67 64 69 81 78 77 75 66 66 63 56 56 48 34 21 18 3
73 116 166 136 147 129 73 64 63 60 47 42 43 38 48 62 68 66 57 44 33 21 17 23 25 21 22 33 46 44 51 59 63 63 68 67 80 74 73 62 59 55 51 38 19 3 3 9 348
81 121 121 62 84 109 90 61 38 94 52 35 77 56 45 63 63 61 55 49 35 22 22 19 19 24 28 22 29 37 37 39 45 58 62 53 61 60 52 50 17 8 30 5 341 342 343 342 330
94 65 88 60 49 72 84 89 60 56 74 71 94 93 68 71 66 57 47 31 23 27 21 18 18 26 27 28 24 26 44 41 32 28 61 77 59 32 44 48 351 357 348 340 336 322 313 308 298
93 100 80 82 77 76 77 74 87 53 49 69 78 73 65 60 60 53 47 34 28 25 17 14 17 22 20 28 24 29 27 25 357 5 352 89 111 32 325 227 299 306 322 314 303 301 303 298 297
116 104 92 76 81 68 82 67 76 60 69 69 67 72 63 55 49 47 38 30 24 17 9 10 20 20 24 34 29 20 17 24 17 7 359 339 204 190 200 249 231 269 276 268 264 278 282 280 290
102 91 64 35 72 118 94 49 44 175 97 78 63 63 59 48 46 43 33 30 21 14 10 9 15 22 26 22 14 22 23 37 36 13 4 6 354 269 206 228 249 252 256 264 278 288 282 294 297
88 84 85 353 51 81 107 124 301 134 107 98 76 63 60 43 41 42 36 31 23 18 13 11 14 17 19 17 3 3 12 33 41 11 6 5 2 359 345 305 288 276 246 252 276 296 293 295 294
70 126 153 336 22 75 106 171 269 99 120 118 94 75 70 43 28 28 30 28 23 19 15 14 13 9 3 2 3 0 4 18 19 14 7 360 1 2 352 319 303 304 282 272 284 284 277 289 295
171 154 146 172 19 83 108 175 244 199 135 147 143 123 84 48 13 20 29 22 21 21 21 18 11 6 357 355 359 3 15 19 16 14 6 3 0 358 353 340 327 324 322 305 301 282 280 277 291
136 129 128 168 153 93 136 187 231 218 166 173 179 167 157 275 338 25 33 22 23 21 19 18 15 6 1 356 354 350 352 1 8 7 2 359 1 1 359 335 329 321 311 295 283 274 278 303 333
114 115 113 82 62 109 134 253 242 222 202 197 193 195 200 269 354 6 20 22 20 16 12 16 13 8 3 356 347 338 339 349 355 357 2 358 1 1 358 348 331 325 305 318 309 303 273 298 351
87 137 156 154 29 56 81 313 276 254 206 190 198 203 201 195 240 320 360 4 9 9 3 4 2 7 0 0 6 7 7 352 1 354 351 346 353 358 355 347 333 325 314 307 300 264 235 256 257
141 134 130 126 112 264 155 275 273 235 234 222 219 220 221 216 216 253 315 351 354 341 347 356 358 6 2 6 24 26 15 354 337 335 332 338 350 350 347 343 336 331 330 316 312 293 254 236 251
146 127 104 103 94 24 313 208 280 225 239 234 225 221 221 218 208 217 231 257 317 333 344 349 358 4 5 8 17 21 6 338 332 335 339 341 346 344 343 341 332 321 316 312 314 314 283 249 242
126 82 61 47 63 299 224 182 270 225 221 221 215 217 215 213 210 209 210 320 351 353 354 351 1 358 0 5 10 11 352 343 346 341 336 334 337 342 347 337 330 321 313 307 301 303 291 267 259
84 100 58 8 3 253 228 199 252 240 216 204 202 209 212 206 200 201 191 242 336 346 347 347 355 350 352 358 3 356 344 343 340 334 337 340 342 345 343 338 328 322 321 314 308 302 302 282 270
153 139 155 185 217 269 278 233 254 259 232 200 187 192 197 202 201 205 202 201 222 283 322 335 337 336 344 353 354 352 350 342 337 342 341 338 331 328 331 333 329 323 325 322 311 299 305 302 281
141 176 158 126 91 283 264 274 291 249 196 177 183 190 203 205 206 208 202 197 209 233 260 282 311 331 341 346 350 354 354 350 341 340 340 335 334 332 337 336 335 331 330 329 323 321 316 318 299
139 145 113 126 153 248 278 255 241 222 218 212 210 212 214 208 209 207 205 204 215 223 242 279 310 316 328 340 343 343 342 338 337 344 344 339 334 335 336 338 336 335 335 335 334 324 322 324 313
148 154 144 135 164 173 252 264 225 208 202 205 214 212 207 207 206 207 211 209 211 222 251 307 324 329 335 337 337 339 335 337 340 344 337 331 332 334 333 332 333 334 335 338 334 328 330 326 323
197 190 159 163 214 200 218 265 255 209 206 202 209 211 209 208 205 206 206 199 198 212 244 278 302 312 314 325 333 331 334 342 344 337 331 332 332 330 330 331 332 329 329 331 333 329 334 330 324